Regional Weather Roundup
Issued by NWS State College, PA

Home | Current Version | Previous Version | Text Only | Print | Product List | Glossary On
Versions: 1 2 3 4 5 6 7 8 9 10 11 12 13 14 15 16 17 18 19 20 21 22 23 24 25 26 27 28 29 30 31 32 33 34 35 36 37 38 39 40 41 42 43 44 45 46 47 48 49 50
000
ASUS41 KCTP 231503
RWRCTP

REGIONAL WEATHER ROUNDUP
NATIONAL WEATHER SERVICE STATE COLLEGE PA
1000 AM EST TUE JAN 23 2018

Note: "fair" indicates few or no clouds below 12,000 feet with no
significant weather and/or obstructions to visibility.

* = STATION THAT DOES NOT REPORT PRECIPITATION /E.G. RAIN...SNOW...ETC/
    THUNDER OR FOG.

PAZ002>004-007>009-013>016-020>023-029>032-231600-
WESTERN PENNSYLVANIA

CITY           SKY/WX    TMP DP  RH WIND       PRES   REMARKS
ERIE           LGT RAIN  46  43  89 W16G26    29.58R FOG
MEADVILLE      LGT RAIN  41  36  82 SW21G33   29.57R
FRANKLIN*      FAIR      45  33  63 SW21G31   29.58F
NEW CASTLE     CLOUDY    44  33  65 SW14G29   29.63R
BEAVER COUNTY  CLOUDY    45  32  61 SW15      29.64R
BUTLER*        FAIR      46  33  60 SW15G21   29.64S
PITTSBURGH INT PTSUNNY   46  32  58 SW14G23   29.65R
PITTSBURGH     PTSUNNY   46  33  60 SW15G30   29.65F
INDIANA*       CLOUDY    46  37  71 W14G21    29.69S
LATROBE        CLOUDY    45  41  87 SW12      29.69R
WASHINGTON CO* CLOUDY    46  32  58 SW15G25   29.70S
$$

PAZ004>006-010>012-017>019-024>028-033>037-041-042-045-046-049>053-231600-
CENTRAL PENNSYLVANIA

CITY           SKY/WX    TMP DP  RH WIND       PRES   REMARKS
BRADFORD       PTSUNNY   45  42  89 SW8G17    29.56F
DUBOIS           N/A    N/A N/A N/A MISG      29.61R
CLEARFIELD     CLOUDY    45  44  97 SW9       29.63R
JOHNSTOWN      CLOUDY    42  37  82 W9        29.64F
ALTOONA        CLOUDY    47  45  93 W5        29.66R
STATE COLLEGE  RAIN      45  45 100 CALM      29.66R
WILLIAMSPORT   RAIN      43  43 100 CALM      29.62S VSB 1/4
SELINSGROVE    LGT RAIN  41  41 100 CALM      29.66S VSB 1/4
FT INDIANTOWN  LGT RAIN  47  47 100 SE5       29.66S FOG
CAPITAL CITY   LGT RAIN  49  47  93 CALM      29.66F FOG
HARRISBURG     LGT RAIN  47  47 100 NE5       29.65F VSB 1
YORK           LGT RAIN  50  50 100 CALM      29.66S
$$

PAZ038>040-043-044-047-048-054-055-060>062-067>071-231600-
EASTERN PENNSYLVANIA

CITY           SKY/WX    TMP DP  RH WIND       PRES   REMARKS
SCRANTON       RAIN      47  47 100 SW3       29.64R VSB 3/4
MOUNT POCONO   LGT RAIN  45  45 100 SE6       29.61F
ALLENTOWN      LGT RAIN  48  44  86 SE3       29.63F FOG
QUAKERTOWN*    NOT AVBL
READING        HVY RAIN  48  47  96 NW16      29.64R VSB 3/4
LANCASTER      RAIN      51  51 100 NW16      29.66R FOG
COATESVILLE    CLOUDY    57  57 100 S14G23    29.64F
POTTSTOWN      CLOUDY    57  56  96 S7        29.65F
BLUE BELL      CLOUDY    55  55 100 S10       29.66F
DOYLESTOWN     CLOUDY    57  55  93 S9G21     29.63F
WILLOW GROVE   NOT AVBL
NORTH PHILA    LGT RAIN  60  56  86 S9        29.68F
PHILADELPHIA   CLOUDY    58  55  90 S10       29.66F
$$



USA.gov is the U.S. government's official web portal to all federal, state and local government web resources and services.